Temp
54 54 54 54 54 54 54 54 54 54 54 54 55 55 56 56 55 51 44 50 48 43 46 50 52 46 48 45 43 50 51 51 51 49 51 51 53 57 55 55 57 55 51 50 51 51 52 69 71 68 64 66 70 69
53 54 54 54 53 53 53 53 53 53 53 54 55 55 56 56 55 54 41 53 58 45 45 53 55 57 56 55 49 49 49 49 51 47 48 51 54 53 51 52 56 52 57 52 53 56 63 65 62 64 67 66 65 69
53 53 53 53 53 53 53 53 53 53 53 53 55 55 55 55 55 53 42 47 49 45 44 48 49 58 63 61 62 44 52 53 52 55 49 50 53 52 50 50 52 57 61 57 58 62 61 69 72 73 72 69 71 71
53 53 53 53 53 53 53 53 52 52 51 53 54 55 55 55 54 55 42 46 49 45 38 41 60 56 64 63 61 58 56 59 54 55 50 49 52 54 52 53 50 53 57 57 56 62 67 66 69 71 71 72 73 73
53 53 53 53 53 53 53 53 53 51 52 53 54 54 55 54 54 50 45 52 54 45 39 40 51 56 59 60 63 59 54 53 53 50 49 51 53 52 51 50 49 52 51 52 51 57 57 60 67 71 69 68 69 68
52 52 53 53 53 53 53 53 53 52 52 53 53 54 54 53 53 44 40 47 54 52 44 39 48 53 60 62 62 60 52 53 53 51 53 55 57 51 46 46 54 54 56 57 54 59 62 65 67 69 67 67 68 66
52 52 53 53 53 53 53 53 53 53 53 53 53 53 53 53 45 40 43 48 53 52 44 41 39 52 60 59 58 59 56 51 52 55 54 54 55 50 46 45 56 56 59 60 62 64 59 62 60 65 66 67 67 69
52 52 53 53 51 50 51 51 52 52 52 52 53 52 52 52 49 42 52 55 53 48 47 41 40 46 54 51 51 57 55 53 50 53 56 57 56 50 47 50 53 60 64 62 62 63 63 64 66 66 68 69 65 64
52 52 53 53 53 52 52 52 52 52 52 52 53 53 46 43 40 48 60 59 54 48 41 43 39 40 56 52 52 55 56 49 53 47 54 56 53 48 53 54 55 58 61 60 64 68 69 66 65 67 68 67 65 63
52 52 52 52 53 53 53 53 53 52 52 52 49 45 41 46 57 56 47 42 42 47 44 40 45 40 48 51 51 52 51 50 49 53 60 53 52 55 58 61 59 60 61 62 60 59 60 60 61 62 62 62 62 61
52 52 52 52 53 53 53 53 53 52 52 47 43 43 46 57 50 46 43 43 43 41 44 44 45 44 52 47 50 53 50 51 47 52 53 50 50 55 57 59 60 62 63 61 61 61 60 59 59 59 60 61 61 60
52 52 52 52 53 53 53 53 52 49 46 46 46 47 46 48 45 42 41 44 44 40 47 45 48 48 49 54 51 50 48 50 47 53 51 46 50 54 59 60 60 61 63 64 64 61 61 62 60 59 58 58 58 58
52 52 52 52 53 53 53 53 53 52 51 49 44 44 43 42 35 38 40 42 42 46 49 48 47 50 50 53 51 52 50 46 52 49 46 47 51 55 56 61 61 61 62 63 63 63 62 61 61 59 57 57 57 57
52 52 52 52 53 53 53 53 53 51 46 43 43 36 40 41 40 40 38 38 44 45 50 51 50 51 53 52 51 50 51 53 48 44 43 46 49 53 56 59 59 59 60 60 60 60 59 57 56 57 56 55 56 54
52 52 53 53 54 54 53 53 53 48 45 43 45 35 36 43 45 46 47 46 47 48 49 50 50 51 49 51 50 51 50 45 43 41 44 48 51 52 53 56 57 57 58 58 57 57 56 56 53 52 53 53 53 53
53 54 51 54 54 53 53 52 51 49 51 46 45 41 45 44 45 47 48 47 53 49 50 48 48 48 47 47 49 42 46 41 44 48 48 49 50 50 51 53 55 57 56 55 56 56 55 53 52 52 52 51 50 51
53 48 54 53 53 52 53 48 49 51 48 47 44 47 46 46 43 44 45 47 53 47 43 46 44 44 46 45 43 46 42 43 45 46 47 48 48 50 51 53 53 56 55 54 54 53 53 54 53 52 49 50 49 51
50 52 53 53 52 50 50 50 48 51 49 44 42 43 45 46 46 45 46 50 46 44 44 44 46 43 41 42 42 45 43 45 45 45 46 47 48 49 52 51 54 55 54 54 53 53 53 53 51 50 49 48 50 53
49 50 52 53 52 46 45 48 47 42 44 42 42 44 42 44 45 47 46 48 47 47 46 44 42 42 41 46 45 45 44 44 47 49 50 52 50 50 52 53 53 53 54 54 53 52 52 53 52 52 50 49 48 48
52 54 53 54 54 46 45 44 48 42 38 39 44 39 39 42 44 44 45 47 44 43 41 43 43 44 45 47 49 49 49 50 50 49 50 51 52 52 52 52 52 53 53 53 53 51 51 52 53 53 52 51 50 49
52 50 53 51 48 46 44 41 42 40 42 40 43 42 43 46 44 43 43 46 46 44 43 45 45 46 50 51 51 51 51 51 50 50 49 49 51 52 54 54 55 54 52 51 51 53 55 56 57 60 55 53 54 54
49 53 47 50 45 46 44 45 41 42 41 41 42 43 42 42 44 45 47 46 45 46 47 48 49 50 51 50 51 53 53 53 53 52 50 51 53 55 54 55 55 54 54 54 54 53 54 55 55 56 56 55 54 54
51 49 45 43 40 38 40 44 41 40 39 41 44 44 44 44 47 48 42 44 47 51 52 51 51 51 50 53 53 53 55 54 54 53 52 53 53 53 54 55 55 54 53 55 56 57 57 52 55 56 56 56 56 55
51 45 44 41 39 39 44 42 42 41 43 42 41 44 46 46 48 46 45 45 49 52 51 51 51 50 51 52 50 53 54 53 55 53 52 54 55 58 59 59 57 56 56 58 56 56 57 57 54 57 57 58 57 56
41 42 42 39 46 44 45 45 44 44 43 44 43 46 45 45 46 44 43 47 47 48 50 51 51 50 49 50 52 54 55 53 53 58 58 61 61 61 60 59 59 59 60 60 58 58 58 58 57 61 62 59 58 58
38 46 42 48 46 45 47 47 48 49 49 51 50 51 48 48 47 45 47 49 51 53 55 55 55 55 54 56 53 54 55 57 61 58 61 65 62 58 56 57 59 58 59 59 58 59 59 59 59 59 60 62 53 57
43 51 51 54 56 56 55 55 54 51 53 53 51 51 50 45 45 48 53 55 56 60 59 58 58 56 59 62 62 62 58 60 58 57 57 60 64 61 59 57 55 57 57 60 60 59 59 60 60 59 59 59 59 60
52 54 53 57 54 53 52 54 52 50 51 52 52 48 46 48 48 51 54 59 60 59 60 63 63 59 63 65 65 64 62 62 62 62 63 64 64 59 60 62 59 52 60 64 63 63 62 60 60 61 59 57 57 57
55 57 57 54 55 56 53 51 51 52 53 52 49 48 52 56 59 58 59 59 63 61 61 60 57 63 59 58 59 59 58 57 55 54 53 50 52 54 58 58 58 59 58 59 53 53 56 57 58 58 57 54 55 55
54 57 54 54 51 49 49 50 49 52 53 53 56 57 55 55 57 63 63 61 59 57 56 56 57 57 55 55 54 55 57 57 57 53 50 49 50 53 55 55 55 56 55 56 56 57 53 54 54 56 54 53 51 52
54 54 53 52 49 50 51 53 53 53 53 53 54 51 51 55 59 63 60 57 58 57 57 55 56 59 57 55 53 51 51 54 54 55 54 52 52 52 53 53 54 54 54 55 54 52 53 52 53 52 51 52 52 50
53 51 50 47 48 52 53 50 49 48 50 50 50 52 54 54 51 55 59 59 60 59 55 57 55 53 56 56 55 57 49 52 51 51 51 49 49 49 50 53 53 55 55 54 53 53 52 51 50 50 49 49 51 52
52 53 50 49 49 51 50 51 49 48 49 50 49 50 53 51 49 54 62 63 58 56 54 53 55 56 55 54 53 52 51 52 48 45 44 42 41 42 47 47 52 52 51 51 50 50 49 48 47 47 47 48 48 49
MSLP
1019.76 1019.30 1018.81 1018.43 1018.06 1017.70 1017.35 1017.10 1016.84 1016.64 1016.42 1016.18 1015.94 1015.71 1015.48 1015.27 1015.14 1015.28 1014.95 1014.70 1014.88 1013.62 1012.32 1011.65 1011.17 1010.86 1010.46 1010.19 1009.58 1007.02 1005.09 1003.13 1001.99 1000.89 1000.00 998.89 998.10 997.54 997.89 997.87 998.34 999.48 1000.06 1000.24 999.86 999.83 999.10 997.26 996.71 996.79 997.33 998.22 998.26 999.46
1019.48 1019.00 1018.54 1018.18 1017.78 1017.43 1017.12 1016.82 1016.50 1016.18 1015.95 1015.73 1015.46 1015.23 1015.04 1014.86 1014.77 1014.74 1014.89 1014.02 1013.57 1013.39 1011.76 1010.79 1010.02 1009.80 1009.49 1009.33 1009.74 1008.57 1007.55 1005.97 1004.40 1003.70 1002.06 1000.23 999.27 998.61 998.48 999.14 998.68 999.52 999.68 1000.31 1000.23 1000.19 999.35 998.11 998.45 998.07 998.10 999.06 1000.11 999.86
1019.14 1018.68 1018.26 1017.92 1017.48 1017.01 1016.58 1016.17 1015.78 1015.55 1015.38 1015.17 1014.94 1014.73 1014.58 1014.43 1014.27 1014.33 1014.43 1013.96 1013.63 1012.66 1010.92 1009.52 1007.76 1006.64 1006.99 1007.09 1007.64 1008.53 1006.45 1005.47 1005.15 1005.12 1004.08 1001.78 1000.14 999.69 999.85 1000.08 999.82 999.75 999.53 1000.78 1001.13 1000.78 1000.45 999.32 999.26 999.30 999.27 1000.34 1001.35 1002.20
1018.87 1018.44 1017.97 1017.50 1017.00 1016.48 1015.96 1015.48 1015.00 1014.70 1014.76 1014.63 1014.38 1014.24 1014.08 1013.94 1013.78 1013.74 1013.95 1013.50 1013.48 1012.82 1011.57 1008.18 1006.37 1005.62 1004.81 1005.42 1005.83 1006.33 1006.00 1005.75 1005.52 1004.66 1004.02 1002.35 1000.90 1000.02 1000.75 1001.03 1001.32 1001.36 1000.91 1001.06 1002.38 1001.93 1002.10 1001.59 1000.98 1000.80 1001.38 1001.78 1002.20 1003.01
1018.60 1018.06 1017.51 1016.95 1016.38 1015.83 1015.26 1014.70 1014.10 1014.04 1014.06 1014.02 1013.93 1013.74 1013.56 1013.44 1013.37 1013.28 1013.23 1012.55 1012.59 1012.86 1011.40 1009.06 1006.59 1004.08 1003.02 1003.82 1004.22 1005.60 1006.00 1006.33 1005.74 1004.90 1003.44 1002.11 1001.08 1000.81 1001.58 1002.03 1002.49 1002.21 1001.86 1001.26 1001.96 1001.77 1002.94 1003.95 1002.38 1001.28 1002.64 1003.84 1004.11 1003.76
1018.32 1017.70 1017.00 1016.33 1015.65 1015.19 1014.76 1014.29 1013.86 1013.67 1013.53 1013.47 1013.40 1013.25 1013.18 1013.16 1013.16 1013.36 1012.70 1011.51 1011.88 1012.01 1011.54 1009.66 1006.47 1004.02 1002.95 1002.52 1003.53 1004.98 1005.99 1006.19 1005.47 1004.91 1003.05 1001.48 1000.60 1001.02 1002.92 1004.10 1003.72 1002.90 1001.82 1001.63 1002.68 1002.97 1003.34 1003.54 1002.90 1002.38 1003.22 1004.32 1004.26 1004.87
1018.10 1017.36 1016.67 1016.07 1015.50 1015.04 1014.55 1014.21 1013.84 1013.50 1013.30 1013.16 1013.10 1013.08 1013.02 1013.01 1013.20 1013.17 1012.53 1012.21 1011.60 1012.07 1011.52 1009.64 1007.32 1003.94 1002.60 1002.68 1003.08 1004.30 1005.27 1006.39 1005.68 1004.60 1002.76 1001.98 1001.10 1001.02 1003.24 1004.30 1003.66 1003.53 1002.96 1002.83 1003.02 1002.98 1004.08 1003.78 1004.42 1004.21 1004.39 1005.00 1005.22 1005.48
1017.94 1017.27 1016.55 1016.00 1015.58 1015.03 1014.60 1014.13 1013.80 1013.54 1013.28 1013.07 1012.86 1012.79 1012.75 1012.69 1012.57 1012.37 1011.20 1010.68 1011.49 1011.78 1011.11 1009.73 1007.12 1004.90 1002.21 1002.90 1003.52 1003.48 1004.77 1005.34 1005.88 1005.93 1003.30 1001.82 1001.49 1002.03 1003.87 1004.04 1003.84 1003.64 1003.55 1003.74 1003.90 1003.76 1004.18 1004.58 1004.62 1005.13 1005.00 1005.23 1005.80 1005.89
1017.83 1017.23 1016.58 1016.00 1015.41 1014.81 1014.23 1013.80 1013.43 1013.18 1013.07 1012.90 1012.60 1012.48 1012.57 1012.57 1012.24 1010.98 1010.06 1010.18 1010.62 1011.36 1010.87 1009.59 1007.90 1005.74 1003.09 1002.81 1002.59 1002.94 1002.94 1004.61 1005.82 1005.87 1004.04 1003.04 1002.70 1002.96 1003.32 1003.58 1003.89 1003.94 1003.97 1004.21 1004.07 1004.35 1004.48 1004.58 1004.65 1005.54 1005.85 1005.59 1005.83 1006.71
1017.68 1017.09 1016.53 1015.95 1015.39 1014.83 1014.24 1013.72 1013.24 1012.99 1012.94 1012.81 1012.54 1012.53 1012.22 1011.28 1010.17 1010.24 1010.41 1010.74 1010.94 1010.62 1010.60 1009.43 1007.76 1006.40 1004.49 1003.10 1002.80 1002.76 1002.50 1003.02 1004.12 1005.10 1003.18 1002.66 1002.86 1003.01 1002.85 1003.17 1003.45 1003.81 1004.02 1004.19 1004.66 1005.18 1005.25 1005.61 1006.32 1006.40 1006.67 1006.76 1006.98 1007.39
1017.52 1016.96 1016.42 1015.84 1015.35 1014.83 1014.35 1013.92 1013.50 1013.10 1012.87 1012.96 1012.70 1012.38 1011.26 1010.28 1010.30 1010.18 1010.11 1010.11 1010.06 1009.63 1009.13 1007.77 1006.72 1005.84 1003.81 1003.06 1002.42 1002.32 1002.38 1002.47 1002.69 1002.74 1002.65 1003.74 1004.60 1004.28 1003.68 1003.79 1003.65 1003.88 1004.22 1004.60 1004.96 1005.58 1006.08 1006.58 1007.20 1007.39 1007.45 1007.57 1007.75 1008.12
1017.36 1016.81 1016.31 1015.75 1015.18 1014.66 1014.23 1013.84 1013.53 1013.28 1013.19 1012.89 1012.99 1012.58 1011.79 1010.74 1010.34 1010.23 1009.26 1008.61 1008.64 1008.61 1007.84 1007.02 1005.40 1004.90 1003.63 1002.20 1001.93 1001.68 1001.68 1001.90 1002.44 1002.38 1003.26 1005.05 1005.40 1005.00 1004.59 1004.74 1004.80 1004.75 1004.87 1005.09 1005.27 1005.91 1006.40 1006.92 1007.38 1007.80 1008.16 1008.48 1008.78 1008.82
1017.09 1016.59 1016.12 1015.58 1014.99 1014.34 1013.80 1013.37 1013.01 1012.90 1012.48 1012.50 1012.69 1012.51 1011.78 1010.95 1010.48 1010.16 1009.12 1007.80 1007.14 1007.06 1006.52 1005.93 1005.44 1004.38 1003.14 1002.09 1001.95 1001.89 1002.13 1002.70 1002.73 1003.59 1005.38 1006.66 1006.52 1006.17 1006.09 1005.76 1005.76 1005.71 1005.63 1005.86 1006.26 1006.50 1006.89 1007.53 1007.98 1008.35 1008.80 1009.02 1009.08 1009.08
1016.77 1016.34 1015.85 1015.32 1014.69 1014.02 1013.38 1012.74 1012.40 1012.28 1012.30 1012.16 1011.94 1011.88 1011.94 1010.96 1010.73 1010.25 1010.39 1009.46 1007.84 1006.46 1005.15 1004.43 1004.10 1003.93 1003.08 1002.64 1002.61 1002.97 1003.18 1003.12 1004.27 1005.55 1007.55 1007.96 1007.54 1007.51 1007.04 1006.77 1006.52 1006.72 1006.78 1007.00 1007.25 1007.52 1007.88 1008.25 1008.83 1009.10 1009.27 1009.26 1009.13 1009.24
1016.39 1016.02 1015.65 1015.09 1014.39 1013.64 1012.92 1012.22 1011.72 1012.03 1012.21 1012.11 1011.79 1011.69 1011.86 1011.24 1010.78 1009.91 1008.91 1008.89 1007.59 1006.14 1004.96 1004.80 1005.04 1004.83 1004.28 1003.89 1003.80 1004.06 1004.44 1005.66 1007.14 1008.24 1008.65 1008.60 1008.42 1008.24 1007.84 1007.40 1007.27 1007.39 1007.51 1007.61 1007.78 1008.12 1008.57 1008.91 1009.17 1009.38 1009.32 1009.32 1009.39 1009.42
1016.01 1015.60 1015.61 1015.04 1014.21 1013.26 1012.45 1011.89 1011.52 1011.80 1011.96 1012.56 1012.42 1012.17 1011.47 1011.00 1010.34 1009.61 1008.94 1008.27 1006.90 1006.13 1005.45 1005.53 1005.54 1005.32 1005.29 1005.22 1005.22 1006.45 1006.55 1008.16 1009.06 1009.11 1009.17 1009.07 1008.92 1008.73 1008.46 1008.32 1008.13 1007.88 1007.98 1008.13 1008.31 1008.55 1008.88 1009.20 1009.34 1009.44 1009.56 1009.65 1009.70 1009.58
1015.92 1016.08 1015.76 1015.14 1014.13 1012.97 1012.08 1012.29 1012.10 1012.01 1012.46 1012.68 1012.74 1012.50 1012.28 1011.76 1011.49 1010.81 1010.18 1009.40 1008.03 1007.22 1007.53 1007.06 1007.18 1007.32 1006.75 1006.95 1008.21 1008.72 1009.39 1009.86 1009.92 1009.82 1009.66 1009.59 1009.46 1009.24 1009.04 1008.88 1008.78 1008.48 1008.53 1008.66 1008.84 1009.07 1009.28 1009.42 1009.58 1009.68 1009.82 1009.94 1009.98 1009.90
1016.47 1016.00 1015.69 1015.29 1014.55 1013.58 1012.79 1012.43 1012.65 1012.46 1012.72 1013.25 1013.31 1013.43 1012.81 1012.38 1012.04 1011.47 1010.76 1009.97 1009.31 1008.97 1008.67 1008.60 1008.38 1008.87 1009.27 1009.46 1009.96 1010.24 1010.20 1010.02 1009.98 1009.88 1009.50 1009.24 1009.14 1009.00 1008.94 1009.03 1008.88 1008.76 1008.82 1008.99 1009.09 1009.22 1009.33 1009.50 1009.68 1009.92 1010.06 1010.20 1010.12 1009.97
1016.96 1016.36 1015.74 1015.21 1014.81 1014.75 1014.31 1013.70 1013.64 1013.92 1014.08 1014.02 1013.96 1013.66 1013.20 1012.63 1012.11 1011.77 1011.16 1010.36 1009.80 1009.18 1009.14 1009.44 1010.09 1010.61 1010.82 1010.79 1010.92 1010.82 1010.59 1010.46 1010.21 1009.74 1009.34 1008.84 1008.58 1008.52 1008.48 1008.55 1008.61 1008.82 1008.96 1009.17 1009.36 1009.39 1009.43 1009.47 1009.54 1009.73 1010.09 1010.23 1010.19 1010.12
1016.26 1015.98 1015.58 1014.84 1014.52 1014.75 1014.70 1014.66 1014.48 1014.95 1015.28 1015.36 1014.77 1014.48 1014.09 1013.39 1012.72 1012.08 1011.58 1010.85 1010.44 1010.18 1010.93 1011.30 1011.76 1011.84 1011.50 1011.16 1010.95 1010.81 1010.50 1010.00 1009.58 1009.63 1009.54 1009.24 1008.78 1008.40 1008.42 1008.56 1008.69 1008.96 1009.11 1009.23 1009.23 1009.20 1009.33 1009.29 1009.21 1009.23 1009.69 1009.94 1010.00 1010.08
1016.36 1016.20 1015.64 1015.24 1015.01 1015.35 1015.79 1016.01 1015.94 1016.16 1015.95 1015.62 1015.22 1014.82 1014.22 1013.44 1013.08 1012.75 1012.37 1011.62 1011.36 1011.96 1011.96 1012.09 1012.09 1011.92 1011.70 1011.45 1010.98 1010.80 1010.25 1010.22 1010.20 1010.35 1010.40 1009.92 1009.45 1009.13 1008.82 1008.82 1008.99 1009.18 1009.27 1009.26 1009.31 1009.14 1009.01 1008.89 1008.70 1008.41 1008.96 1009.19 1009.10 1009.30
1016.92 1016.64 1016.44 1016.03 1016.00 1015.96 1016.24 1016.48 1016.57 1016.39 1016.15 1015.64 1015.08 1014.66 1014.29 1013.94 1013.49 1013.12 1012.96 1012.46 1012.72 1012.85 1012.18 1012.06 1011.78 1011.40 1011.04 1011.19 1011.21 1010.77 1010.61 1010.19 1010.08 1009.90 1009.61 1009.77 1009.75 1009.56 1009.68 1009.58 1009.45 1009.21 1009.06 1008.93 1008.82 1008.76 1008.62 1008.52 1008.18 1007.96 1008.32 1008.54 1008.52 1008.82
1016.80 1016.76 1016.71 1016.52 1016.30 1016.33 1016.76 1016.51 1016.33 1016.08 1015.85 1015.39 1014.79 1014.34 1014.16 1013.87 1013.29 1013.02 1013.05 1013.09 1013.02 1012.78 1011.76 1011.40 1011.27 1011.02 1010.76 1010.28 1010.60 1010.39 1010.18 1010.40 1010.25 1009.98 1009.72 1009.57 1009.54 1009.35 1009.17 1009.04 1009.03 1008.98 1008.86 1008.36 1008.10 1008.22 1008.17 1007.93 1007.91 1007.98 1008.18 1008.37 1008.41 1008.53
1017.00 1016.84 1016.40 1016.25 1016.24 1016.18 1015.79 1015.63 1015.71 1015.49 1015.08 1014.70 1014.42 1014.28 1013.90 1013.41 1013.40 1013.22 1013.12 1012.82 1012.06 1012.12 1012.02 1011.44 1011.05 1011.07 1010.48 1010.06 1009.92 1009.47 1009.37 1009.74 1009.69 1009.69 1009.46 1009.36 1009.15 1008.70 1008.27 1007.96 1007.96 1008.09 1008.10 1007.96 1008.02 1007.98 1007.78 1007.75 1007.69 1007.78 1007.89 1008.09 1008.27 1008.31
1017.20 1016.71 1016.05 1015.28 1015.06 1015.12 1014.74 1014.32 1014.42 1014.44 1013.81 1013.45 1013.32 1013.07 1013.33 1013.60 1013.42 1013.39 1013.18 1012.42 1011.85 1011.44 1010.95 1010.72 1010.45 1010.24 1010.33 1009.94 1009.42 1008.98 1008.57 1009.17 1009.42 1009.33 1008.73 1008.57 1008.17 1007.89 1008.13 1007.88 1007.96 1007.72 1007.40 1007.64 1007.87 1007.86 1007.80 1007.46 1007.43 1007.51 1007.53 1007.63 1007.79 1007.80
1016.18 1015.27 1014.96 1013.96 1013.82 1013.93 1013.17 1012.70 1012.36 1012.26 1012.13 1011.84 1011.75 1011.63 1012.02 1012.58 1013.28 1013.46 1012.76 1011.92 1011.67 1011.12 1010.53 1010.54 1010.29 1010.27 1009.99 1009.55 1009.55 1009.40 1009.17 1008.85 1009.01 1009.17 1008.56 1008.41 1008.24 1008.30 1008.33 1008.34 1008.39 1008.10 1007.70 1007.64 1007.67 1007.71 1007.57 1007.41 1007.52 1007.47 1007.44 1007.32 1007.24 1007.38
1014.94 1013.58 1012.81 1012.16 1011.74 1011.66 1011.58 1011.40 1010.90 1011.05 1011.23 1011.33 1011.22 1011.18 1011.44 1012.31 1012.97 1013.01 1012.18 1011.74 1011.36 1010.61 1010.46 1010.26 1010.21 1010.30 1010.29 1010.06 1009.81 1009.55 1009.25 1009.04 1009.16 1009.20 1008.99 1008.65 1008.60 1008.47 1008.23 1008.53 1008.98 1008.74 1008.06 1007.79 1007.58 1007.52 1007.52 1007.32 1007.28 1007.27 1007.22 1006.96 1006.82 1006.77
1013.30 1012.27 1011.92 1011.37 1011.71 1011.60 1011.68 1011.67 1011.83 1011.84 1011.59 1011.16 1011.22 1011.81 1012.40 1012.69 1013.57 1013.33 1011.91 1011.33 1011.18 1010.64 1010.33 1010.52 1010.58 1010.59 1010.76 1010.70 1010.53 1010.25 1009.98 1009.77 1009.48 1009.24 1009.13 1009.05 1008.97 1008.92 1008.70 1008.49 1008.27 1007.87 1007.74 1007.52 1007.98 1007.54 1007.22 1007.24 1007.10 1007.00 1007.21 1007.20 1006.98 1006.73
1013.28 1012.02 1011.38 1011.54 1011.55 1011.86 1012.38 1012.73 1012.97 1012.67 1012.38 1011.90 1012.36 1012.67 1012.69 1012.64 1012.39 1012.13 1011.88 1011.66 1011.44 1011.34 1011.42 1011.44 1011.62 1011.30 1011.16 1011.14 1011.03 1010.92 1010.76 1010.58 1010.64 1010.58 1010.42 1010.43 1010.26 1009.97 1009.66 1009.34 1009.08 1008.79 1008.53 1008.29 1007.98 1007.80 1007.72 1007.54 1007.15 1006.96 1006.89 1006.97 1006.88 1006.70
1013.11 1012.38 1012.90 1013.16 1013.04 1014.26 1014.82 1014.48 1014.18 1013.88 1013.61 1013.11 1012.78 1013.22 1013.24 1012.92 1012.57 1011.93 1011.85 1012.07 1012.20 1012.41 1012.39 1012.23 1012.12 1012.05 1012.12 1012.01 1011.90 1011.73 1011.43 1011.21 1011.17 1011.28 1011.42 1011.46 1011.45 1011.08 1010.62 1010.29 1009.97 1009.56 1009.19 1008.92 1008.70 1008.18 1007.60 1007.35 1007.14 1007.04 1007.18 1007.18 1007.28 1007.16
1013.50 1013.20 1013.52 1014.09 1014.26 1014.07 1014.09 1014.32 1014.11 1014.54 1014.12 1014.00 1013.97 1014.50 1014.37 1013.58 1012.83 1012.52 1012.49 1012.47 1012.50 1012.63 1012.92 1013.00 1013.14 1013.02 1012.98 1012.81 1012.58 1012.39 1012.42 1012.30 1012.04 1012.04 1011.96 1011.90 1011.70 1011.44 1011.09 1010.64 1010.17 1009.75 1009.43 1009.19 1008.95 1008.82 1008.59 1008.41 1008.30 1008.30 1008.28 1008.16 1007.92 1007.73
1013.72 1013.46 1013.54 1013.83 1014.19 1014.28 1014.25 1014.44 1014.89 1014.98 1014.79 1014.48 1014.64 1014.37 1014.11 1014.00 1013.97 1013.92 1013.38 1013.27 1013.52 1013.93 1014.22 1014.18 1014.11 1014.04 1013.72 1013.46 1013.14 1012.95 1012.90 1012.98 1012.98 1012.83 1012.66 1012.50 1012.23 1011.81 1011.35 1010.96 1010.62 1010.24 1009.84 1009.61 1009.56 1009.45 1009.29 1009.17 1009.08 1008.91 1008.76 1008.57 1008.34 1008.15
1013.56 1013.44 1013.42 1013.66 1013.76 1014.04 1014.20 1014.28 1014.64 1015.00 1015.10 1015.29 1015.71 1015.55 1014.91 1015.10 1015.60 1015.04 1014.31 1014.27 1014.51 1014.85 1015.00 1014.92 1014.69 1014.35 1014.14 1014.02 1013.98 1013.72 1013.48 1013.34 1013.34 1013.19 1013.07 1012.73 1012.36 1012.06 1011.82 1011.56 1011.29 1011.00 1010.74 1010.63 1010.45 1010.24 1010.05 1009.86 1009.68 1009.44 1009.20 1008.93 1008.60 1008.29
Wind_Speed
17 17 17 14 14 14 14 12 11 12 12 12 12 12 13 12 10 2 5 4 4 4 8 15 17 13 10 4 4 9 11 7 6 7 2 2 4 6 5 6 9 7 5 3 4 3 3 6 4 9 7 5 12 8
16 16 14 14 13 13 13 13 14 14 14 13 14 14 13 13 10 4 3 4 6 6 6 16 20 20 20 18 9 5 7 8 3 5 4 4 3 3 6 4 2 1 7 4 6 6 8 5 8 6 11 12 5 18
16 16 14 13 14 15 16 15 16 13 13 14 14 14 14 14 12 6 3 3 3 3 8 9 14 20 18 21 18 5 5 1 5 4 4 5 2 1 3 2 2 9 1 7 5 6 1 18 14 14 18 18 16 14
13 15 15 16 17 18 18 18 18 17 13 14 13 13 14 12 12 7 2 3 2 4 4 9 5 9 7 10 21 18 15 11 7 3 5 5 1 2 3 3 4 2 4 9 5 6 9 13 10 20 18 17 20 19
15 16 17 19 19 19 19 19 16 10 12 12 13 13 12 11 9 4 4 5 6 3 4 8 19 10 9 13 18 17 8 8 5 4 3 3 1 4 3 4 6 4 2 4 5 4 5 5 11 22 19 14 13 18
17 19 20 20 19 16 15 15 11 7 10 11 12 10 9 6 6 2 4 2 3 1 3 5 6 7 6 8 17 20 4 4 3 3 5 4 1 5 6 4 5 7 4 4 6 4 11 8 11 15 17 12 11 11
18 19 17 15 15 16 13 13 13 10 8 6 5 6 7 6 1 3 2 3 3 3 2 5 6 7 5 5 2 7 13 0 5 5 4 2 3 5 5 4 6 3 7 8 5 12 12 9 4 5 8 7 9 7
17 19 16 12 13 16 15 15 13 11 11 10 8 7 7 8 6 5 5 15 5 2 3 4 6 6 1 2 3 3 6 5 4 4 6 2 5 4 5 1 4 4 8 8 7 7 7 7 9 7 6 6 5 5
16 16 17 17 16 17 16 10 9 8 9 10 9 5 3 1 2 4 9 2 3 1 2 3 3 5 4 1 2 1 4 4 6 4 5 3 2 3 9 7 6 4 6 7 7 7 8 9 8 7 6 7 7 0
15 16 16 17 17 17 17 12 13 7 7 9 4 1 2 4 7 3 5 2 2 2 2 4 4 5 2 2 2 3 1 4 5 11 5 3 4 4 6 10 10 9 9 8 9 8 8 8 7 7 8 7 7 6
15 16 16 16 16 16 15 13 11 5 1 1 2 2 4 6 1 1 2 4 3 3 4 4 5 4 4 3 4 3 4 3 4 3 5 2 3 3 5 9 7 9 9 9 9 8 8 9 7 7 6 7 7 7
15 15 15 16 16 16 15 12 10 3 1 3 2 4 3 2 2 3 4 3 5 6 4 4 5 5 6 2 3 4 2 3 3 1 5 3 4 5 8 10 9 8 8 7 8 10 9 9 8 8 7 7 6 5
14 14 14 15 16 15 16 15 13 10 8 2 2 3 1 3 1 3 4 3 2 4 5 5 3 3 5 3 3 4 6 1 0 5 4 3 4 7 6 8 9 8 10 9 8 7 10 8 7 7 7 5 5 5
13 13 13 13 13 17 18 19 16 7 1 1 2 5 4 3 3 2 2 5 5 5 6 1 2 2 3 5 1 5 3 4 4 6 4 2 3 3 5 6 11 8 8 7 8 9 9 9 8 6 5 3 5 4
13 11 10 9 17 20 20 20 15 1 0 3 3 3 2 4 1 6 5 5 5 5 3 4 5 2 3 2 3 3 3 5 5 2 2 2 4 6 7 6 7 6 4 5 6 7 7 7 6 4 4 5 5 4
17 6 2 14 20 23 22 11 2 2 3 3 5 5 6 2 6 6 8 8 10 7 4 4 3 4 5 3 6 7 4 4 2 3 2 4 6 6 6 6 7 4 6 6 6 7 7 6 4 3 3 4 3 3
14 2 14 18 22 24 12 1 3 0 2 3 1 3 3 3 4 5 5 7 10 5 4 4 7 3 4 5 5 4 3 1 2 3 2 2 4 5 5 6 6 0 6 6 6 6 5 4 4 4 4 2 2 2
3 8 17 17 14 7 4 1 3 3 4 4 4 7 5 1 4 5 5 7 6 5 4 2 1 7 5 4 3 2 2 3 3 3 4 5 5 5 3 4 4 3 6 5 5 5 4 4 4 2 4 2 2 2
11 12 14 17 7 2 3 5 4 4 3 3 4 6 4 4 3 5 4 6 3 3 2 4 6 4 2 3 1 3 3 2 4 4 4 7 6 6 5 5 4 4 6 5 4 3 3 4 3 4 4 2 2 0
15 8 15 14 6 3 4 4 4 3 4 3 3 5 4 4 6 4 5 5 4 4 6 5 3 3 2 3 2 3 4 4 4 4 5 6 5 6 6 4 3 4 4 3 1 2 1 1 2 3 4 5 4 4
7 6 10 6 4 5 3 3 3 2 3 3 3 5 4 4 4 4 5 4 5 3 2 1 1 2 3 3 5 6 6 4 2 1 1 3 5 4 4 4 5 3 1 2 2 4 4 4 4 2 4 4 5 5
2 8 3 4 3 4 3 2 1 2 2 3 3 3 2 3 4 3 4 4 3 1 4 3 4 4 4 2 4 7 7 7 5 4 5 2 4 3 2 3 4 4 3 4 4 4 4 4 4 2 4 3 4 5
5 1 2 3 3 4 2 1 2 1 3 4 3 3 3 3 3 3 3 1 1 3 4 4 4 5 7 8 3 6 7 7 6 4 5 4 3 3 4 4 4 4 5 5 4 4 4 3 1 2 3 3 3 3
2 2 2 2 3 2 2 2 1 2 2 2 2 3 2 2 3 4 3 2 3 3 5 7 4 4 5 5 4 5 4 5 5 3 4 4 4 5 4 4 1 3 5 4 3 3 2 2 2 1 2 0 3 5
3 3 1 4 2 1 3 1 4 2 4 5 4 3 4 2 2 2 2 4 3 3 5 5 5 4 3 4 3 4 1 5 4 2 4 4 3 3 1 4 2 2 2 4 1 2 5 4 3 3 3 3 6 6
1 5 7 5 2 2 4 3 1 5 2 3 1 3 4 4 3 3 5 3 3 3 4 3 5 4 5 4 4 4 3 2 3 1 2 6 6 1 3 1 1 4 4 2 2 3 4 3 1 1 4 7 10 8
4 2 5 6 4 3 3 1 4 4 3 1 1 2 3 4 5 4 4 4 2 3 2 3 4 5 6 7 6 6 5 5 5 1 2 3 4 3 4 5 1 4 3 4 4 4 3 3 3 4 4 3 2 1
6 3 1 4 5 3 3 5 6 4 3 3 4 5 3 3 3 4 4 4 3 3 5 5 6 5 8 7 7 7 7 6 7 7 6 7 6 5 6 4 4 11 5 6 5 5 4 3 3 3 5 5 4 4
6 5 5 2 3 2 4 4 5 4 5 3 4 3 3 2 1 2 3 2 4 7 8 7 5 5 5 4 5 5 5 5 6 7 8 4 5 6 6 6 5 5 4 5 9 8 7 6 6 6 4 2 1 2
5 4 8 13 8 8 5 4 4 5 5 4 2 5 4 3 3 2 6 5 6 5 3 3 3 5 4 5 5 6 5 5 6 4 4 5 4 5 5 6 6 5 5 5 5 6 9 5 6 5 5 5 4 5
3 2 3 2 5 6 5 2 2 4 3 3 4 6 5 3 4 6 4 2 5 5 6 6 7 8 7 7 5 5 5 5 8 10 7 4 5 6 6 6 5 4 5 6 5 5 5 6 6 7 8 8 7 6
4 4 2 2 2 2 3 2 0 1 3 3 4 3 3 3 3 5 6 6 8 9 9 8 7 6 6 6 5 6 7 4 4 5 8 5 5 6 6 6 6 7 7 6 6 6 6 7 5 4 3 4 4 5
1 3 2 3 2 2 2 2 3 3 4 3 3 7 7 4 5 4 3 8 7 6 5 4 5 6 8 7 7 5 6 4 4 6 7 10 10 8 5 5 5 7 7 7 8 8 9 8 8 8 8 8 8 7
Wind_Direction
325 327 319 314 316 312 311 310 302 302 300 297 296 297 299 302 297 227 255 223 244 276 282 275 271 269 281 241 267 321 327 352 334 19 35 269 121 205 104 171 160 168 146 166 87 84 257 347 314 155 194 15 123 88
328 324 322 327 322 320 313 305 299 297 290 298 298 293 295 295 292 294 269 249 270 233 278 288 269 260 258 251 265 282 280 294 294 1 337 314 0 78 140 221 351 132 159 178 171 172 239 48 86 83 73 81 54 105
323 328 319 314 314 312 310 308 299 282 301 287 288 288 290 294 292 262 239 265 298 275 285 252 247 247 235 223 216 218 260 248 336 244 280 273 14 78 71 38 49 349 232 72 21 354 96 106 96 83 86 83 78 66
324 321 319 315 312 309 307 295 292 280 291 283 291 291 285 288 282 268 213 229 259 270 269 282 283 255 268 198 198 198 242 291 271 283 215 253 322 27 49 156 86 246 358 139 140 61 41 22 97 109 93 90 100 96
328 322 314 309 306 307 307 315 323 276 281 265 279 284 277 282 284 276 236 237 220 240 297 293 304 264 258 199 192 192 223 266 286 307 265 263 274 74 30 59 4 345 305 124 178 115 105 281 105 98 96 98 94 94
326 321 315 311 309 308 314 319 326 284 278 273 277 277 278 293 327 352 312 303 191 205 268 287 283 287 318 173 159 173 162 283 283 252 263 291 299 96 85 76 281 317 350 47 128 150 135 113 70 83 91 93 87 93
328 330 332 333 345 351 346 350 349 345 342 330 310 297 292 290 102 196 252 281 317 342 258 286 293 267 207 119 100 143 130 135 345 292 284 272 321 80 82 125 232 308 63 70 93 97 54 49 61 54 97 109 113 112
333 342 339 354 344 329 319 316 320 319 322 318 303 279 280 285 288 289 230 253 158 230 258 279 273 319 154 128 152 169 145 134 8 285 279 15 350 63 60 275 154 123 73 70 95 94 134 139 97 80 85 82 62 54
335 338 341 345 343 335 345 357 347 306 298 307 320 287 346 108 240 235 213 206 145 129 311 286 275 292 336 270 243 98 130 135 129 351 304 145 274 88 174 150 125 138 114 139 89 97 94 95 92 110 98 63 75 15
331 334 338 339 339 342 345 348 350 355 356 346 18 345 261 225 215 129 19 69 355 187 219 240 266 272 343 189 249 116 121 155 148 177 280 62 15 34 128 121 134 116 106 94 76 54 61 61 74 52 56 64 71 54
327 329 333 333 333 335 341 348 346 343 254 247 266 241 267 298 26 214 237 191 167 242 201 256 228 241 263 210 185 179 180 184 108 223 114 67 40 355 111 104 103 99 92 93 110 108 95 108 106 86 61 72 67 51
326 326 327 327 326 325 325 325 327 333 246 225 298 284 286 267 234 279 232 210 171 206 213 251 261 201 273 271 84 335 74 46 96 235 80 56 331 4 80 75 61 69 74 88 103 103 99 88 92 88 79 65 52 52
320 319 321 321 324 324 319 315 310 294 296 184 159 245 232 281 287 239 302 286 327 139 201 219 249 285 332 327 53 50 46 6 7 52 80 49 342 45 64 78 69 65 66 99 89 91 97 96 87 100 103 89 67 34
312 314 318 320 316 318 317 312 312 332 297 307 294 356 355 9 4 344 297 264 287 262 290 201 33 60 316 19 46 70 307 58 48 48 68 271 22 40 66 72 75 61 62 92 100 102 98 94 87 76 66 61 68 27
319 305 318 313 320 323 322 317 315 158 12 340 333 27 301 286 243 286 218 269 257 258 356 25 52 192 289 48 35 64 43 64 32 65 158 274 55 25 29 40 63 61 71 98 110 105 112 110 103 94 75 58 50 34
341 334 323 333 328 324 319 316 331 129 35 24 347 350 324 348 14 358 1 349 344 335 18 29 21 25 9 2 34 9 47 60 57 5 356 6 17 16 17 14 3 63 85 99 108 107 106 111 123 111 85 72 52 33
334 1 335 333 329 318 317 354 349 20 50 346 350 240 272 299 352 340 348 334 328 13 22 16 33 332 321 46 42 18 35 321 297 299 296 310 320 328 340 343 346 95 114 109 111 116 139 133 107 71 60 66 93 86
297 315 324 328 334 324 306 15 351 323 19 13 39 346 336 81 353 354 333 344 2 358 6 36 178 35 27 33 32 345 314 291 276 283 280 279 274 277 268 269 299 205 136 130 130 136 117 121 122 120 89 88 90 68
296 304 310 325 334 288 344 346 34 7 25 5 334 354 334 315 338 319 329 327 289 256 51 30 49 34 32 15 345 324 316 293 291 297 287 285 257 249 240 240 259 160 139 143 141 154 183 183 200 182 166 137 109 251
306 313 336 325 356 8 10 355 31 26 23 311 337 334 295 291 305 324 335 342 353 46 35 38 51 8 352 295 332 329 317 329 7 21 20 5 358 38 59 89 103 137 130 132 113 85 191 252 265 221 168 190 177 214
327 342 333 6 11 40 67 354 33 26 329 327 343 330 307 319 344 349 352 321 37 34 35 352 219 227 246 293 308 324 326 360 338 57 341 329 347 17 61 46 48 43 103 164 214 275 247 239 249 230 159 211 205 191
307 346 344 351 41 6 67 28 348 310 319 294 325 329 346 356 332 4 309 18 57 5 306 337 327 315 289 216 231 286 261 284 300 322 332 347 12 26 64 163 223 276 255 237 229 245 265 263 280 193 174 218 161 173
310 239 4 7 56 51 303 293 355 26 352 340 320 351 18 352 299 321 41 357 211 213 249 238 232 252 264 284 237 220 239 264 277 292 308 317 296 252 268 251 220 243 280 287 216 206 201 215 210 119 142 181 206 218
349 317 326 22 111 352 206 246 128 297 283 318 63 76 330 308 340 16 332 301 266 154 196 250 264 281 290 276 272 262 219 184 240 260 245 249 279 292 302 284 265 225 210 226 183 216 229 236 213 228 266 231 221 237
358 312 34 322 184 192 257 220 173 188 263 187 209 138 150 116 12 8 298 288 298 300 280 268 261 249 260 279 292 301 206 144 195 320 297 180 284 353 206 301 10 304 9 88 6 273 281 273 212 206 225 270 274 249
345 219 167 219 199 190 239 285 228 194 231 43 48 172 139 125 104 17 315 308 328 342 332 2 39 61 31 18 19 18 6 101 141 253 348 32 30 142 289 25 22 320 1 45 25 348 15 59 86 269 287 281 280 290
322 281 221 218 217 231 270 304 354 41 44 108 286 28 86 73 38 310 313 343 312 287 2 14 67 74 47 5 5 11 5 47 75 145 267 58 106 135 87 97 44 263 296 11 11 4 313 326 331 308 280 290 308 350
232 246 252 297 35 12 35 21 12 13 3 343 42 40 66 61 103 261 257 298 295 353 27 28 25 53 65 47 42 31 22 15 23 28 35 33 32 19 10 23 11 15 25 32 350 333 0 323 324 15 341 329 326 343
311 314 7 1 78 65 26 40 15 355 319 61 94 53 44 119 259 319 288 351 31 50 48 39 19 30 24 32 32 21 20 22 34 19 18 1 351 346 356 5 359 0 14 13 352 2 352 344 317 299 324 296 341 338
296 348 29 353 18 42 346 358 328 327 346 340 55 64 12 9 298 353 54 52 55 48 38 55 29 43 29 22 360 3 351 15 32 57 44 27 1 327 349 346 346 353 350 351 332 324 330 345 344 29 53 49 16 13
312 19 118 82 140 187 222 266 353 339 2 32 50 102 238 287 3 18 29 57 60 51 35 16 30 28 25 17 8 8 9 1 31 43 40 22 7 356 341 327 323 332 338 334 358 40 24 35 35 41 31 24 20 26
334 344 34 138 221 207 195 53 345 316 340 40 26 318 18 40 57 19 356 45 45 42 31 43 32 6 357 351 9 33 68 40 59 46 32 12 352 335 327 336 349 350 350 354 20 16 30 23 19 19 22 6 358 349
73 357 4 2 8 162 216 169 56 49 30 61 51 5 6 39 40 302 14 52 60 51 38 31 15 6 360 25 24 11 11 27 83 21 15 19 23 19 17 10 20 13 16 22 19 18 12 5 359 352 345 336 326 310